Weather History for Jefferson, NC

Change the Weather History Date:

Friday, March 18, 2011

  Actual Average Record
Temperature  
Mean Temperature 60 °F -  
Max Temperature 69 °F 53 °F 73 °F (1982)
Min Temperature 51 °F 30 °F 11 °F (1967)
Degree Days  
Heating Degree Days 5    
Growing Degree Days 10 (Base 50)    
Moisture  
Dew Point 42 °F    
Average Humidity 49    
Maximum Humidity 58    
Minimum Humidity 42    
Precipitation  
Precipitation 0.00 in - - ()
Sea Level Pressure  
Sea Level Pressure 30.18 in    
Wind  
Wind Speed 12 mph (West)    
Max Wind Speed 31 mph    
Max Gust Speed 59 mph    
Visibility 10 miles    
Events      
Averages and records for this station are not official NWS values.
T = Trace of Precipitation, MM = Missing Value Source: NWS Daily Summary

Daily Weather History Graph

Daily Weather History Graph

Search for Another Location

Airport:

Trip Planner

Search our weather history database for the weather conditions in past years. The results will help you decide how hot, cold, wet, or windy it might be!

Date:

Astronomy

Mar. 18, 2011 Rise Set
Actual Time 7:32 AM EDT 7:35 PM EDT
Civil Twilight 7:06 AM EDT 8:01 PM EDT
Nautical Twilight 6:36 AM EDT 8:31 PM EDT
Astronomical Twilight 6:06 AM EDT 9:01 PM EDT
Moon 6:42 PM EDT (3/18) 6:27 AM EDT (3/18)
Length of Visible Light 12h 54m
Length of Day
12h 02m
Waxing Gibbous, 98% of the Moon is Illuminated
Mar 18
Waxing Gibbous
Mar 19
Full
Mar 26
Last Quarter
Apr 3
New
Apr 11
First Quarter

Hourly Weather History & Observations

Time (EDT) Temp. Dew Point Humidity Pressure Visibility Wind Dir Wind Speed Gust Speed Precip Events Conditions
12:02 AM 51.8 °F 37.4 °F 58% 30.23 in 10.0 mi Calm Calm - N/A   Clear
12:22 AM 51.8 °F 37.4 °F 58% 30.22 in 10.0 mi Calm Calm - N/A   Clear
12:42 AM 51.8 °F 37.4 °F 58% 30.22 in 10.0 mi SSE 3.5 mph - N/A   Clear
1:04 AM 51.8 °F 37.4 °F 58% 30.21 in 10.0 mi Calm Calm - N/A   Clear
1:24 AM 51.8 °F 37.4 °F 58% 30.20 in 10.0 mi Calm Calm - N/A   Clear
1:42 AM 51.8 °F 37.4 °F 58% 30.20 in 10.0 mi Calm Calm - N/A   Clear
2:02 AM 51.8 °F 37.4 °F 58% 30.20 in 10.0 mi Calm Calm - N/A   Clear
2:22 AM 51.8 °F 37.4 °F 58% 30.19 in 10.0 mi West 4.6 mph - N/A   Clear
2:42 AM 59.0 °F 37.4 °F 45% 30.19 in 10.0 mi West 10.4 mph 19.6 mph N/A   Clear
3:02 AM 59.0 °F 37.4 °F 45% 30.18 in 10.0 mi West 16.1 mph 27.6 mph N/A   Clear
3:24 AM 59.0 °F 37.4 °F 45% 30.17 in 10.0 mi West 23.0 mph 29.9 mph N/A   Clear
3:42 AM 59.0 °F 37.4 °F 45% 30.17 in 10.0 mi West 28.8 mph 40.3 mph N/A   Clear
4:22 AM 60.8 °F 37.4 °F 42% 30.16 in 10.0 mi West 31.1 mph 48.3 mph N/A   Clear
4:42 AM 59.0 °F 37.4 °F 45% 30.16 in 10.0 mi West 29.9 mph 42.6 mph N/A   Clear
5:02 AM 59.0 °F 37.4 °F 45% 30.16 in 10.0 mi West 27.6 mph 41.4 mph N/A   Clear
5:24 AM 59.0 °F 37.4 °F 45% 30.16 in 10.0 mi West 29.9 mph 58.7 mph N/A   Clear
5:42 AM 59.0 °F 37.4 °F 45% 30.17 in 10.0 mi WNW 27.6 mph 48.3 mph N/A   Clear
6:04 AM 59.0 °F 35.6 °F 42% 30.16 in 10.0 mi West 31.1 mph 49.5 mph N/A   Clear
6:22 AM 59.0 °F 37.4 °F 45% 30.17 in 10.0 mi West 28.8 mph 51.8 mph N/A   Clear
6:42 AM 59.0 °F 37.4 °F 45% 30.18 in 10.0 mi West 31.1 mph 47.2 mph N/A   Clear
7:02 AM 59.0 °F 37.4 °F 45% 30.17 in 10.0 mi West 29.9 mph 46.0 mph N/A   Clear
7:22 AM 59.0 °F 37.4 °F 45% 30.18 in 10.0 mi West 23.0 mph 42.6 mph N/A   Clear
7:42 AM 59.0 °F 37.4 °F 45% 30.18 in 10.0 mi West 25.3 mph 36.8 mph N/A   Clear
8:22 AM 59.0 °F 37.4 °F 45% 30.20 in 10.0 mi WNW 20.7 mph 36.8 mph N/A   Clear
8:42 AM 59.0 °F 37.4 °F 45% 30.21 in 10.0 mi WNW 17.3 mph 35.7 mph N/A   Clear
9:02 AM 59.0 °F 37.4 °F 45% 30.21 in 10.0 mi West 16.1 mph 32.2 mph N/A   Clear
9:22 AM 59.0 °F 37.4 °F 45% 30.21 in 10.0 mi WNW 9.2 mph 26.5 mph N/A   Clear
10:02 AM 59.0 °F 39.2 °F 48% 30.21 in 10.0 mi WNW 13.8 mph 25.3 mph N/A   Scattered Clouds
10:22 AM 59.0 °F 39.2 °F 48% 30.21 in 10.0 mi West 11.5 mph 24.2 mph N/A   Clear
10:42 AM 60.8 °F 41.0 °F 48% 30.21 in 10.0 mi West 13.8 mph 21.9 mph N/A   Scattered Clouds
11:02 AM 60.8 °F 41.0 °F 48% 30.21 in 10.0 mi West 23.0 mph 34.5 mph N/A   Scattered Clouds
11:22 AM 62.6 °F 41.0 °F 45% 30.21 in 10.0 mi West 18.4 mph 27.6 mph N/A   Scattered Clouds
11:42 AM 62.6 °F 42.8 °F 48% 30.22 in 10.0 mi West 8.1 mph 25.3 mph N/A   Mostly Cloudy
12:02 PM 62.6 °F 42.8 °F 48% 30.22 in 10.0 mi West 13.8 mph 27.6 mph N/A   Overcast
12:22 PM 62.6 °F 42.8 °F 48% 30.21 in 10.0 mi West 24.2 mph 33.4 mph N/A   Overcast
1:02 PM 64.4 °F 44.6 °F 49% 30.19 in 10.0 mi West 13.8 mph 25.3 mph N/A   Clear
1:24 PM 66.2 °F 44.6 °F 46% 30.19 in 10.0 mi WNW 13.8 mph 23.0 mph N/A   Clear
1:44 PM 66.2 °F 46.4 °F 49% 30.19 in 10.0 mi WNW 13.8 mph 21.9 mph N/A   Clear
2:02 PM 68.0 °F 46.4 °F 46% 30.18 in 10.0 mi West 10.4 mph 18.4 mph N/A   Clear
2:22 PM 68.0 °F 46.4 °F 46% 30.18 in 10.0 mi West 20.7 mph 28.8 mph N/A   Clear
2:44 PM 68.0 °F 46.4 °F 46% 30.17 in 10.0 mi West 13.8 mph 23.0 mph N/A   Clear
3:02 PM 68.0 °F 48.2 °F 49% 30.16 in 10.0 mi WNW 18.4 mph - N/A   Clear
3:22 PM 68.0 °F 48.2 °F 49% 30.15 in 10.0 mi West 10.4 mph 19.6 mph N/A   Scattered Clouds
3:42 PM 69.8 °F 48.2 °F 46% 30.14 in 10.0 mi WNW 19.6 mph 26.5 mph N/A   Clear
4:02 PM 69.8 °F 46.4 °F 43% 30.15 in 10.0 mi West 11.5 mph 21.9 mph N/A   Clear
4:22 PM 69.8 °F 48.2 °F 46% 30.15 in 10.0 mi West 16.1 mph 24.2 mph N/A   Clear
5:25 PM 69.8 °F 48.2 °F 46% 30.14 in 10.0 mi West 17.3 mph 21.9 mph N/A   Clear
5:42 PM 68.0 °F 48.2 °F 49% 30.14 in 10.0 mi West 11.5 mph 21.9 mph N/A   Clear
6:05 PM 68.0 °F 48.2 °F 49% 30.14 in 10.0 mi West 11.5 mph 19.6 mph N/A   Scattered Clouds
6:22 PM 68.0 °F 48.2 °F 49% 30.15 in 10.0 mi WSW 10.4 mph 18.4 mph N/A   Scattered Clouds
6:42 PM 66.2 °F 48.2 °F 52% 30.15 in 10.0 mi West 11.5 mph - N/A   Scattered Clouds
7:22 PM 66.2 °F 48.2 °F 52% 30.16 in 10.0 mi West 10.4 mph - N/A   Clear
7:42 PM 64.4 °F 48.2 °F 56% 30.16 in 10.0 mi WNW 11.5 mph - N/A   Clear
8:02 PM 64.4 °F 48.2 °F 56% 30.16 in 10.0 mi West 11.5 mph - N/A   Clear
8:22 PM 64.4 °F 48.2 °F 56% 30.15 in 10.0 mi WSW 8.1 mph - N/A   Clear
9:02 PM 64.4 °F 48.2 °F 56% 30.16 in 10.0 mi WSW 5.8 mph - N/A   Clear
9:22 PM 62.6 °F 48.2 °F 59% 30.16 in 10.0 mi West 8.1 mph - N/A   Clear
9:42 PM 62.6 °F 48.2 °F 59% 30.16 in 10.0 mi WNW 8.1 mph - N/A   Clear
10:02 PM 64.4 °F 48.2 °F 56% 30.15 in 10.0 mi West 10.4 mph 21.9 mph N/A   Clear
10:22 PM 64.4 °F 48.2 °F 56% 30.15 in 10.0 mi West 16.1 mph 25.3 mph N/A   Clear
10:42 PM 62.6 °F 48.2 °F 59% 30.16 in 10.0 mi West 16.1 mph 20.7 mph N/A   Clear
11:02 PM 62.6 °F 48.2 °F 59% 30.16 in 10.0 mi West 17.3 mph - N/A   Clear
11:22 PM 62.6 °F 48.2 °F 59% 30.16 in 10.0 mi West 9.2 mph 19.6 mph N/A   Clear
11:42 PM 62.6 °F 48.2 °F 59% 30.16 in 10.0 mi West 15.0 mph 23.0 mph N/A   Clear